Left ArrowRight Arrow

44.31136, -96.79839

Hourly Observations for January 23, 2018

Temp ( °F °C ) Dew Point ( °F °C ) Humidity (%) Winds ( mph kmh ) Pressure ( in mb ) Visibility ( mi km ) Precip ( " mm )
12:56 am 00:56 Cloudy 21 -6.1 19 -7.2 92 92 undefined N/A N/A 10 16 0.00 0.00
1:07 am 01:07 Cloudy 21 -6 19 -7 93 93 NNW 17 28 30.09 1019 10 16 0.00 0.00
1:56 am 01:56 Cloudy 20 -6.7 19 -7.2 96 96 N 17 28 30.09 1019 10 16 0.00 0.00
2:56 am 02:56 Cloudy 20 -6.7 19 -7.2 96 96 N 14 22 30.11 1020 10 16 0.00 0.03
3:56 am 03:56 Cloudy 20 -6.7 18 -7.8 92 92 N 17 28 30.13 1020 10 16 0.00 0.00
4:09 am 04:09 Cloudy 19 -7 18 -8 93 93 NNW 12 19 30.15 1021 10 16 0.00 0.00
4:56 am 04:56 Cloudy 20 -6.7 17 -8.3 89 89 NNW 15 24 30.14 1021 10 16 0.00 0.00
5:48 am 05:48 Cloudy 19 -7 18 -8 93 93 NNW 15 24 30.15 1021 10 16 0.00 0.00
5:56 am 05:56 Cloudy 19 -7.2 18 -7.8 96 96 NNW 12 19 30.15 1021 10 16 0.00 0.00
6:56 am 06:56 Cloudy 19 -7.2 17 -8.3 92 92 NNW 13 20 30.16 1021 10 16 0.00 0.00
7:56 am 07:56 Cloudy 18 -7.8 17 -8.3 96 96 N 9 15 30.16 1022 10 16 0.00 0.00
8:56 am 08:56 Cloudy with Mist and Fog 19 -7.2 17 -8.3 92 92 N 7 11 30.18 1022 6 10 0.00 0.00
9:24 am 09:24 Cloudy with Mist and Fog 18 -8 18 -8 100 100 WNW 9 15 30.24 1024 4 6 0.00 0.00
9:56 am 09:56 Cloudy with Mist and Fog 19 -7.2 18 -7.8 96 96 N 6 9 30.21 1023 4 6 0.00 0.00
10:56 am 10:56 Cloudy with Mist and Fog 20 -6.7 18 -7.8 92 92 undefined N/A 30.23 1024 4 6 0.00 0.00
11:56 am 11:56 Cloudy 21 -6.1 19 -7.2 92 92 S 3 6 30.21 1023 9 14 0.00 0.00
12:30 pm 12:30 Cloudy 21 -6 19 -7 93 93 WNW 8 13 30.21 1023 10 16 0.00 0.00
12:56 pm 12:56 Cloudy 22 -5.6 19 -7.2 89 89 VRB 5 7 30.20 1023 10 16 0.00 0.00
1:56 pm 13:56 Cloudy 23 -5 20 -6.7 88 88 W 8 13 30.20 1023 10 16 0.00 0.00
2:56 pm 14:56 Cloudy 22 -5.6 20 -6.7 92 92 W 10 17 30.20 1023 10 16 0.00 0.00
3:40 pm 15:40 Cloudy with Mist and Fog 23 -5 19 -7 86 86 WNW 10 17 30.21 1023 5 8 0.00 0.00
3:56 pm 15:56 Cloudy 22 -5.6 20 -6.7 92 92 WNW 10 17 30.22 1023 7 11 0.00 0.00
4:56 pm 16:56 Cloudy with Mist and Fog 23 -5 21 -6.1 92 92 W 9 15 30.24 1024 4 6 0.00 0.00
5:56 pm 17:56 Cloudy 23 -5 21 -6.1 92 92 WNW 10 17 30.25 1024 8 13 0.00 0.00
6:06 pm 18:06 Cloudy 23 -5 21 -6 93 93 WNW 10 17 30.24 1024 7 11 0.00 0.00
6:56 pm 18:56 Cloudy 23 -5 21 -6.1 92 92 WNW 7 11 30.26 1025 7 11 0.00 0.00
7:56 pm 19:56 Cloudy 23 -5 21 -6.1 92 92 NW 6 9 30.26 1025 7 11 0.00 0.00
8:47 pm 20:47 Cloudy with Mist and Fog 23 -5 21 -6 93 93 undefined N/A 30.27 1025 5 8 0.00 0.00
8:56 pm 20:56 Cloudy with Mist and Fog 22 -5.6 21 -6.1 96 96 NW 6 9 30.27 1025 5 8 0.00 0.00
9:47 pm 21:47 Cloudy with Mist and Fog 21 -6 21 -6 100 100 W 6 9 30.27 1025 3 4 0.00 0.00
9:56 pm 21:56 Cloudy with Mist and Fog 21 -6.1 20 -6.7 96 96 WNW 5 7 30.29 1026 2 3 0.00 0.00
10:14 pm 22:14 Cloudy with Mist and Fog 21 -6 19 -7 93 93 W 5 7 30.27 1025 2 3 0.00 0.00
10:19 pm 22:19 Cloudy with Mist and Fog 21 -6 19 -7 93 93 W 5 7 30.27 1025 1 2 0.00 0.00
10:23 pm 22:23 Cloudy with Freezing Fog 21 -6 19 -7 93 93 WSW 3 6 30.30 1026 1 1 0.00 0.00
10:56 pm 22:56 Cloudy with Freezing Fog 21 -6.1 19 -7.2 92 92 WSW 3 6 30.29 1026 0 0 0.00 0.00
11:33 pm 23:33 Cloudy with Freezing Fog 19 -7 18 -8 93 93 W 5 7 30.33 1027 1 1 0.00 0.00
11:52 pm 23:52 Cloudy with Freezing Fog 19 -7 18 -8 93 93 WNW 3 6 30.33 1027 0 0 0.00 0.00
11:56 pm 23:56 Cloudy with Freezing Fog 20 -6.7 18 -7.8 92 92 W 3 6 30.30 1026 0 0 0.00 0.00

Powered by Vaisala Xweather